Simultaneous Nadir Overpasses (SNOs) Predictions

Prediction of SNOs between GOES-16 and TERRA Satellite Orbit:

Table of predicted SNOs for the next 14.0 days since TLE Epoch: 10/10/2025
Index Date Time (GOES-16) GOES-16 Lat,Lon TERRA Lat,Lon Distance(km) Time Diff (sec)
1 10/12/2025 15:54:36 0.06,-104.72 -0.87,-100.36 495.26 80
2 10/13/2025 04:14:07 -0.06,-104.65 -0.18,-105.10 51.91 80
3 10/15/2025 03:52:03 -0.06,-104.64 0.84,-100.44 478.14 80
4 10/15/2025 16:11:27 0.06,-104.70 0.18,-105.16 52.41 80
5 10/17/2025 15:54:42 0.06,-104.70 -0.80,-100.48 478.49 80
6 10/18/2025 04:14:14 -0.07,-104.64 -0.17,-105.24 68.03 80
7 10/20/2025 03:52:08 -0.07,-104.63 0.77,-100.55 463.28 80
8 10/20/2025 16:11:33 0.07,-104.69 0.18,-105.29 67.21 80
9 10/22/2025 15:54:47 0.07,-104.69 -0.78,-100.60 464.32 80
10 10/23/2025 04:14:18 -0.07,-104.63 -0.23,-105.35 81.89 80
